Погода в Чкаловском

Россия / Оренбургская область     53°29′21″N   52°56′16″E
темп.,
°C
ветер,
м/с
пор.,
м/с
влажн.,
%
обл.,
%
осадки,
мм/ч
давл.,
гПа
погр.,
м
26 октября, вт
вт2623:00+2с696711 0.2 10221012
02:00−1ссз49768 0.0 1025432
05:00−2сз3682100 0.0 1026224
08:00−2зсз247995 0.0 1027133
11:00+1з35599 0.0 1028403
14:00+4зюз67425 0.0 1027935
17:00+3зюз694768 0.0 1026849
20:00+1юз5115685 0.0 1027438
27 октября, ср
ср2723:00+1юз5116089 0.0 1026376
02:000юз5116457 0.0 1026335
05:00−1юз5126776 0.0 1025349
08:00−1юз51269100 0.0 1024334
11:00+2юз6116085 0.0 1024479
14:00+5юз7115093 0.0 1022676
17:00+6юз61350100 0.0 1021685
20:00+4юз61453100 0.0 1021533
28 октября, чт
чт2823:00+3юз61455100 0.0 1020499
02:00+2юз6145679 0.0 1018448
05:00+2юз7155682 0.0 1016449
08:00+1юз71555100 0.0 1015529
11:000юз61394100 0.8 1016515
14:00+2юз61089100 0.3 1016464
17:00+4юз5107291 0.3 1015535
20:00+3ююз41177100 0.0 1015270
29 октября, пт
пт2923:00+3юз4118096 0.0 1014283
02:00+2ююз3982100 0.0 1014235
05:00+3ююз2380100 0.0 101497
08:00+3юз1187100 0.6 101548
11:000ссв71195100 2.4 1018497
14:00+1св8106382 0.2 1022737
17:00−1св711590 0.2 1026791
20:00−3св511660 0.0 1030557
30 октября, сб
сб3023:00−4св49703 0.0 1032408
02:00−5ссв35772 0.0 1033141
05:00−5ссв1177100 0.0 103310
08:00−5зсз117399 0.0 103410
11:00−1зюз2360100 0.0 1032286
14:00+2зюз574999 0.0 1031489
17:00+2зюз51051100 0.0 1030483
20:00+1зюз51153100 0.0 1030376